Home > Weather > Freising > Past weeks

Flag for Germany Weather for the Past 2 Weeks in Freising, Bavaria, Germany

Now
32 °F

Partly cloudy.


Feels Like: 32 °F
Forecast: 37 / 46 °F
Wind: 2 mph from Northeast

Location: Munich / Franz Josef Strauss Airport

Current Time: Feb 13, 2016 at 4:18:33 AM

Latest Report: Feb 13, 2016 at 3:20 AM


Visibility: N/A

Pressure: 29.33 "Hg

Humidity: 100%

Dew point: 32 °F

Location of FreisingLocation

Historic Weather in Freising — Graph

°F

Freising Temperature Yesterday

Maximum temperature yesterday: 41 °F (at 1:50 PM)
Minimum temperature yesterday: 23 °F (at 2:20 AM)
Average temperature yesterday: 33 °F

High & Low Weather Summary for the Past Weeks

 TemperatureHumidityPressure
High57 °F (Feb 1, 2:50 PM)100% (Jan 29, 2:20 AM)30.45 "Hg (Jan 29, 2:20 AM)
Low23 °F (Feb 12, 2:20 AM)47% (Feb 8, 5:20 PM)29.24 "Hg (Feb 9, 7:50 PM)
Average41 °F83%29.94 "Hg
* Reported Jan 29 2:20 AM — Feb 13 2:50 AM, Freising, Weather by CustomWeather, © 2016

Note: Actual official high and low records may vary slightly from our data, if they occured in-between our weather recording intervals... More about our weather records

Advertising

Freising Weather History for the Previous 24 Hours

 ConditionsComfort  
Time TempWeatherWind HumidityBarometerVisibility
2:50 AM
Sat, Feb 13
32 °FMostly cloudy.2 mph100%29.33 "HgN/A
2:20 AM32 °FMostly cloudy.3 mph100%29.33 "HgN/A
1:50 AM34 °FMostly cloudy.3 mph93%29.36 "HgN/A
1:20 AM34 °FLight rain. Mostly cloudy.2 mph87%29.36 "HgN/A
12:50 AM34 °FLight snow. Mostly cloudy.2 mph87%29.36 "HgN/A
12:20 AM32 °FLight snow. Mostly cloudy.3 mph93%29.36 "HgN/A
11:50 PM
Fri, Feb 12
32 °FOvercast.2 mph93%29.36 "HgN/A
11:20 PM34 °FPassing clouds.3 mph81%29.36 "HgN/A
10:20 PM32 °FClear.6 mph87%29.36 "Hg10 mi
9:50 PM32 °FClear.5 mph87%29.36 "Hg10 mi
9:20 PM32 °FClear.1 mph80%29.39 "Hg10 mi
8:50 PM34 °FPassing clouds.3 mph75%29.39 "HgN/A
8:20 PM34 °FClear.5 mph75%29.39 "Hg10 mi
7:50 PM34 °FClear.7 mph75%29.39 "Hg10 mi
7:20 PM36 °FClear.6 mph70%29.39 "Hg10 mi
6:50 PM36 °FClear.8 mph70%29.39 "Hg10 mi
6:20 PM36 °FClear.9 mph75%29.39 "Hg10 mi
5:50 PM37 °FClear.8 mph70%29.39 "Hg10 mi
5:20 PM37 °FSunny.9 mph70%29.42 "Hg10 mi
4:50 PM39 °FSunny.13 mph61%29.42 "Hg10 mi
4:20 PM41 °FPassing clouds.14 mph57%29.45 "HgN/A
3:50 PM41 °FSunny.15 mph57%29.47 "Hg10 mi
3:20 PM41 °FSunny.14 mph57%29.47 "Hg10 mi
2:50 PM41 °FSunny.12 mph53%29.47 "Hg10 mi
2:20 PM41 °FPassing clouds.12 mph57%29.50 "HgN/A
1:50 PM41 °FSunny.9 mph61%29.53 "Hg10 mi
1:20 PM39 °FPassing clouds.9 mph61%29.53 "HgN/A
12:50 PM39 °FPassing clouds.7 mph61%29.56 "HgN/A
12:20 PM39 °FPassing clouds.6 mph65%29.59 "HgN/A
11:50 AM37 °FPassing clouds.5 mph70%29.59 "HgN/A
11:20 AM37 °FSunny.2 mph65%29.62 "Hg10 mi
10:50 AM34 °FSunny.1 mph75%29.62 "Hg10 mi
10:20 AM34 °FSunny.2 mph75%29.65 "Hg10 mi
9:50 AM32 °FSunny.3 mph80%29.65 "Hg10 mi
9:20 AM32 °FSunny.5 mph80%29.65 "Hg10 mi
8:50 AM30 °FSunny.2 mph86%29.65 "Hg10 mi
8:20 AM27 °FSunny.1 mph93%29.68 "Hg10 mi
7:50 AM28 °FScattered clouds.1 mph86%29.68 "HgN/A
7:20 AM28 °FPassing clouds.3 mph86%29.68 "HgN/A
6:20 AM27 °FClear.1 mph100%29.68 "Hg10 mi
5:50 AM27 °FPassing clouds.3 mph100%29.68 "HgN/A
5:20 AM27 °FClear.5 mph100%29.71 "Hg10 mi
4:50 AM27 °FClear.2 mph100%29.71 "Hg10 mi
4:20 AM27 °FClear.2 mph100%29.71 "Hg10 mi
Weather by CustomWeather, © 2016

See weather overviewHow to use our weather pages